Flag for Botswana Weather past 2 weeks in Molepolole, Botswana

Now
81 °F

Scattered clouds.


Feels Like: 80 °F
Forecast: 55 / 78 °F
Wind: 14 mph from Northwest

Location: Seretse Khama International Airport


UV Index: 5 (Moderate)

Visibility: N/A


Pressure: 29.92 "Hg

Humidity: 37%

Dew point: 52 °F

Location of MolepololeLocation

Historic Weather in Molepolole

°F

Molepolole temperature yesterday

Maximum temperature yesterday: 82 °F (at 2:00 PM)
Minimum temperature yesterday: 52 °F (at 5:00 AM)
Average temperature yesterday: 67 °F

Past Weeks' High & Low Weather Summary

 TemperatureHumidityPressure
High82 °F (Apr 21, 2:00 PM)100% (Apr 14, 12:00 AM)30.42 "Hg (Apr 14, 12:00 AM)
Low50 °F (Apr 18, 7:00 AM)21% (Apr 22, 2:00 PM)29.95 "Hg (Apr 13, 6:00 PM)
Average66 °F66%30.21 "Hg
* Reported Apr 8 1:00 PM — Apr 23 1:00 PM, Molepolole, Weather by CustomWeather, © 2014

Note: Actual official high and low records may vary slightly from our data, if they occured in-between our weather recording intervals... More about our weather records

Advertising

Historic Weather Conditions — Data for Previous 24 hours

 ConditionsComfort  
Time TempWeatherWind HumidityBarometerVisibility
1:00 PM
Apr 23
77 °FScattered clouds.8 mph47%29.95 "HgN/A
12:00 PM70 °FPartly sunny.9 mph69%30.01 "HgN/A
11:00 AM64 °FThunderstorms. Partly sunny.7 mph78%30.01 "HgN/A
10:00 AM63 °FPassing clouds.5 mph83%30.01 "HgN/A
9:00 AM61 °FLight rain. Clear.2 mph77%30.04 "HgN/A
8:00 AM61 °FPassing clouds.5 mph68%30.01 "HgN/A
7:00 AM59 °FSunny.5 mph68%29.98 "Hg10 mi
6:00 AM57 °FSunny.3 mph72%29.95 "Hg10 mi
5:00 AM59 °FClear.6 mph68%29.95 "Hg10 mi
4:00 AM61 °FClear.7 mph63%29.98 "Hg10 mi
3:00 AM61 °FClear.3 mph63%29.95 "Hg10 mi
2:00 AM64 °FClear.5 mph52%29.98 "Hg10 mi
1:00 AM63 °FClear.2 mph56%30.01 "Hg10 mi
12:00 AM64 °FPassing clouds.5 mph49%30.01 "HgN/A
11:00 PM
Apr 22
63 °FClear.3 mph56%30.01 "Hg10 mi
10:00 PM64 °FClear.3 mph52%30.01 "Hg10 mi
9:00 PM66 °FClear.7 mph49%30.01 "Hg10 mi
8:00 PM68 °FClear.5 mph43%30.01 "Hg10 mi
7:00 PM70 °FClear.8 mph38%30.01 "Hg10 mi
6:00 PM75 °FPassing clouds.7 mph31%29.98 "HgN/A
5:00 PM81 °FPassing clouds.6 mph24%29.98 "HgN/A
4:00 PM82 °FScattered clouds.7 mph21%29.98 "HgN/A
3:00 PM81 °FScattered clouds.5 mph23%29.98 "HgN/A
Weather by CustomWeather, © 2014

See weather overview